CHINASAT 16 (SJ-13)

Last updated on Wed Nov 20 2024 00:02:42 GMT+0000 (Coordinated Universal Time)

1 42662U 17018A 24323.79701944 -.00000349 00000+0 00000+0 0 9997 2 42662 0.0553 100.5585 0008211 145.0420 210.1807 1.00267860 27960
UTC large
Height (km)
Speed (km/s)
/
Latitude / Longitude
Inclination (degrees)
Orbital Period (minutes)
Azimuth
Elevation
Range (km)
Doppler Factor

Next 0 passes for location: London (51.5072 / 0.1276)

Sorry there are no passes over London.